Location: Unspecified
(50.7693°N, 0.0000°E)
Time: 19:00:52
(UTC+00:00)

Transit 2A Rocket - Pass Details

Date: 30 October 2019
Orbit: 594 x 909 km, 66.7° (Epoch: 11 November)

Event Time Altitude Azimuth Distance (km) Brightness Sun altitude
Exits shadow 03:21:51 23° 32° (NNE) 1,353 6.7 -32.6°
Drops below altitude 10° 03:23:35 10° 35° (NE) 2,011 7.8 -32.4°
Sets 03:25:47 0° 37° (NE) 2,893 8.8 -32.1°
